Sussex, NJ

3:31 PM EST on December 10, 2016 (GMT -0500)
Sussex

Weather History for KFWN - January, 2013

Change the Weather History Date:

Thursday, January 10, 2013

  Actual Average Record
Temperature  
Mean Temperature 36 °F -  
Max Temperature 45 °F 31 °F 62 °F (2016)
Min Temperature 28 °F 11 °F -21 °F (1968)
Degree Days  
Heating Degree Days 28    
Moisture  
Dew Point 23 °F    
Average Humidity 55    
Maximum Humidity 82    
Minimum Humidity 39    
Precipitation  
Precipitation 0.00 in - - ()
Sea Level Pressure  
Sea Level Pressure 30.46 in    
Wind  
Wind Speed 4 mph (NW)    
Max Wind Speed 10 mph    
Max Gust Speed 22 mph    
Visibility 10 miles    
Events      
Averages and records for this station are not official NWS values.
T = Trace of Precipitation, MM = Missing Value Source: NWS Daily Summary

Daily Weather History Graph

Daily Weather History Graph

Search for Another Location

Airport or City:

Trip Planner

Search our weather history database for the weather conditions in past years. The results will help you decide how hot, cold, wet, or windy it might be!

Date:

Astronomy

Jan. 10, 2013 Rise Set
Actual Time 7:23 AM EST 4:49 PM EST
Civil Twilight 6:52 AM EST 5:19 PM EST
Nautical Twilight 6:18 AM EST 5:54 PM EST
Astronomical Twilight 5:45 AM EST 6:27 PM EST
Moon 6:00 AM EST 3:54 PM EST
Length of Visible Light 10h 27m
Length of Day
9h 25m
Waning Crescent, 2% of the Moon is Illuminated
Jan 10
Waning Crescent
Jan 11
New
Jan 18
First Quarter
Jan 26
Full
Feb 3
Last Quarter

Hourly Weather History & Observations

Time (EST) Temp. Windchill Dew Point Humidity Pressure Visibility Wind Dir Wind Speed Gust Speed Precip Events Conditions
12:53 AM 43.0 °F 40.3 °F 26.1 °F 51% 30.26 in 10.0 mi Variable 4.6 mph - N/A   Clear
1:53 AM 43.0 °F 40.3 °F 24.1 °F 47% 30.28 in 10.0 mi Variable 4.6 mph 16.1 mph N/A   Clear
2:53 AM 42.1 °F 37.7 °F 25.0 °F 51% 30.33 in 10.0 mi Variable 6.9 mph - N/A   Partly Cloudy
3:53 AM 41.0 °F 35.8 °F 23.0 °F 49% 30.34 in 10.0 mi NW 8.1 mph - N/A   Clear
4:53 AM 39.9 °F - 23.0 °F 51% 30.35 in 10.0 mi Calm Calm - N/A   Clear
5:53 AM 39.9 °F - 23.0 °F 51% 30.39 in 10.0 mi Calm Calm - N/A   Overcast
6:53 AM 37.9 °F - 24.1 °F 57% 30.43 in 10.0 mi Calm Calm - N/A   Overcast
7:53 AM 39.0 °F 36.8 °F 23.0 °F 53% 30.47 in 10.0 mi Variable 3.5 mph - N/A   Clear
8:53 AM 41.0 °F - 23.0 °F 49% 30.49 in 10.0 mi Calm Calm - N/A   Clear
9:53 AM 41.0 °F 36.4 °F 21.0 °F 45% 30.51 in 10.0 mi North 6.9 mph 16.1 mph N/A   Clear
10:53 AM 42.1 °F 37.7 °F 21.9 °F 45% 30.51 in 10.0 mi Variable 6.9 mph - N/A   Clear
11:53 AM 43.0 °F 37.7 °F 21.0 °F 42% 30.49 in 10.0 mi NNW 9.2 mph 21.9 mph N/A   Clear
12:53 PM 44.1 °F 38.6 °F 21.9 °F 42% 30.47 in 10.0 mi North 10.4 mph 17.3 mph N/A   Clear
1:53 PM 45.0 °F 41.2 °F 21.9 °F 40% 30.48 in 10.0 mi Variable 6.9 mph - N/A   Clear
2:53 PM 45.0 °F 41.8 °F 21.0 °F 39% 30.49 in 10.0 mi WNW 5.8 mph - N/A   Clear
3:53 PM 44.1 °F 41.5 °F 21.9 °F 42% 30.50 in 10.0 mi NW 4.6 mph - N/A   Clear
4:53 PM 42.1 °F - 21.9 °F 45% 30.51 in 10.0 mi Calm Calm - N/A   Clear
5:53 PM 35.1 °F - 24.1 °F 64% 30.52 in 10.0 mi Calm Calm - N/A   Clear
6:53 PM 33.1 °F - 24.1 °F 70% 30.54 in 10.0 mi Calm Calm - N/A   Clear
7:53 PM 32.0 °F 28.7 °F 24.1 °F 73% 30.53 in 10.0 mi West 3.5 mph - N/A   Clear
8:53 PM 28.0 °F - 23.0 °F 81% 30.53 in 10.0 mi Calm Calm - N/A   Clear
9:53 PM 28.0 °F - 23.0 °F 81% 30.54 in 10.0 mi Calm Calm - N/A   Clear
10:53 PM 28.9 °F - 24.1 °F 82% 30.54 in 10.0 mi Calm Calm - N/A   Clear
11:53 PM 28.9 °F 25.2 °F 24.1 °F 82% 30.53 in 10.0 mi WSW 3.5 mph - N/A   Clear